This is the latest recevied weather packets stored in our database for station/object SP1BMW-13. If no packets are shown the sender has not sent any weather packets the latest 1 day(s).
| Time | Temp. | Humidity | Pressure | Rain* | Wind** | Luminosity | Snow |
|---|---|---|---|---|---|---|---|
| 1778000326 | 12.22° C | 91% | 1008.1 hPa | 0 mm | 0 m/s | 18 W/m² | - |
| 1778000266 | 12.22° C | 91% | 1008 hPa | 0 mm | 0 m/s | 18 W/m² | - |
| 1778000206 | 12.22° C | 91% | 1008.2 hPa | 0 mm | 0.45 m/s, 349° | 19 W/m² | - |
| 1778000146 | 12.22° C | 91% | 1008.2 hPa | 0 mm | 0.89 m/s, 342° | 19 W/m² | - |
| 1778000089 | 12.22° C | 91% | 1008.2 hPa | 0 mm | 0.89 m/s, 303° | 20 W/m² | - |
| 1778000036 | 12.78° C | 91% | 1008.1 hPa | 0 mm | 0 m/s | 22 W/m² | - |
| 1777999966 | 12.78° C | 91% | 1008.1 hPa | 0 mm | 0.89 m/s, 15° | 23 W/m² | - |
| 1777999906 | 12.78° C | 91% | 1008.2 hPa | 0 mm | 1.79 m/s, 318° | 22 W/m² | - |
| 1777999847 | 12.78° C | 91% | 1008.1 hPa | 0 mm | 0.45 m/s, 303° | 21 W/m² | - |
| 1777999786 | 12.78° C | 91% | 1008 hPa | 0 mm | 0.45 m/s, 359° | 19 W/m² | - |
| 1777999726 | 12.78° C | 91% | 1008.2 hPa | 0 mm | 0 m/s | 17 W/m² | - |
| 1777999667 | 12.78° C | 91% | 1008.2 hPa | 0 mm | 0 m/s | 16 W/m² | - |
| 1777999607 | 12.78° C | 91% | 1008.2 hPa | 0 mm | 0.45 m/s, 19° | 15 W/m² | - |
| 1777999547 | 12.78° C | 91% | 1008.2 hPa | 0 mm | 0 m/s | 15 W/m² | - |
| 1777999486 | 12.78° C | 91% | 1008.1 hPa | 0 mm | 0.45 m/s, 16° | 15 W/m² | - |
| 1777999426 | 12.78° C | 90% | 1008.1 hPa | 0 mm | 0 m/s | 15 W/m² | - |
| 1777999367 | 12.78° C | 90% | 1008.2 hPa | 0 mm | 0.45 m/s, 356° | 14 W/m² | - |
| 1777999306 | 12.78° C | 90% | 1008.2 hPa | 0 mm | 0.45 m/s, 5° | 14 W/m² | - |
| 1777999246 | 12.78° C | 90% | 1008.2 hPa | 0 mm | 0 m/s | 13 W/m² | - |
| 1777999187 | 12.78° C | 90% | 1008.1 hPa | 0 mm | 0.89 m/s, 350° | 12 W/m² | - |
| 1777999126 | 12.78° C | 89% | 1008.1 hPa | 0 mm | 0.89 m/s, 322° | 12 W/m² | - |
| 1777999067 | 12.78° C | 89% | 1008.1 hPa | 0 mm | 1.34 m/s, 307° | 12 W/m² | - |
| 1777999006 | 13.33° C | 89% | 1008.1 hPa | 0 mm | 0.89 m/s, 330° | 12 W/m² | - |
| 1777998946 | 13.33° C | 89% | 1008.1 hPa | 0 mm | 1.79 m/s, 345° | 10 W/m² | - |
| 1777998886 | 13.33° C | 90% | 1008.2 hPa | 0 mm | 0 m/s | 9 W/m² | - |
* Rain latest hour (hover to see other rain measurements)
** Current wind speed in m/s (hover to see current wind gust speed)